NORTHERN NASSAU  -  Coastal Flood Statement Coastal Flood Statement     Rip Current Statement Rip Current Statement        NORTHERN QUEENS  -  Coastal Flood Statement Coastal Flood Statement     Rip Current Statement Rip Current Statement        SOUTHERN NASSAU  -  Coastal Flood Statement Coastal Flood Statement     Rip Current Statement Rip Current Statement        SOUTHERN QUEENS  -  Coastal Flood Statement Coastal Flood Statement     Rip Current Statement Rip Current Statement        NORTHEAST SUFFOLK  -  Rip Current Statement Rip Current Statement        NORTHWEST SUFFOLK  -  Rip Current Statement Rip Current Statement        SOUTHEAST SUFFOLK  -  Rip Current Statement Rip Current Statement        SOUTHWEST SUFFOLK  -  Rip Current Statement Rip Current Statement      

Active alerts

Northern Queens
  Details for Northern Queens Coastal Flood Statement  +1 additional alert
Southern Queens
  Details for Southern Queens Coastal Flood Statement  +1 additional alert
Northern Nassau
  Details for Northern Nassau Coastal Flood Statement  +1 additional alert
Southern Nassau
  Details for Southern Nassau Coastal Flood Statement  +1 additional alert
Northwest Suffolk
  Details for Northwest Suffolk Rip Current Statement
Southwest Suffolk
  Details for Southwest Suffolk Rip Current Statement
Northeast Suffolk
  Details for Northeast Suffolk Rip Current Statement
Southeast Suffolk
  Details for Southeast Suffolk Rip Current Statement


WXM80 ListenWXM80 Stop

You find our weather info also at:

UK Metoffice

WeatherCloud

Weather Underground

Northeastern Weather Network

AWEKAS

Citizen Weather Observer Program (CWOP)

HAMweather, WeatherForYou, PWS Weather


Weather Underground History page Text

Daily Summary for January 22, 2018 Units:  English    Metric   Both
« Previous Day
Next Day »
Daily Weekly Monthly Yearly Custom
  High: Low: Average:
Temperature: 41.8 °F 36.4 °F 38.3 °F
Dew Point: 38.0 °F 34.7 °F 36.2 °F
Humidity: 97 % 80 % 92 %
Wind Speed: 8.0 mph 0.0 mph 2.8 mph
Wind Gust: 11.5 mph - -
Wind:- - East
Pressure: 29.98 in 29.84 in -
Precipitation: 0.00 in    
Historical Graphs
 
 
Tabular Data for January 22, 2018
Time Temperature Dew Point Pressure Wind Wind Speed Wind Gust Humidity Rainfall Rate (Hourly)
00:09 41.8 °F 36.1 °F 29.93 in Calm     80 % 0.00 in
00:14 41.7 °F 36.3 °F 29.94 in Calm     81 % 0.00 in
00:19 41.5 °F 36.1 °F 29.93 in Calm     81 % 0.00 in
00:24 41.5 °F 36.1 °F 29.94 in Calm     81 % 0.00 in
00:29 41.4 °F 35.7 °F 29.93 in Calm     80 % 0.00 in
00:39 41.2 °F 35.5 °F 29.93 in Calm     80 % 0.00 in
00:44 41.2 °F 35.5 °F 29.92 in Calm     80 % 0.00 in
00:49 41.1 °F 35.4 °F 29.92 in Calm     80 % 0.00 in
01:04 40.9 °F 35.5 °F 29.92 in Calm     81 % 0.00 in
01:09 40.9 °F 35.5 °F 29.92 in Calm     81 % 0.00 in
01:14 40.8 °F 35.7 °F 29.92 in Calm     82 % 0.00 in
01:24 40.7 °F 35.6 °F 29.92 in Calm     82 % 0.00 in
01:35 40.7 °F 35.9 °F 29.92 in Calm     83 % 0.00 in
01:40 40.6 °F 35.5 °F 29.92 in Calm     82 % 0.00 in
01:45 40.6 °F 35.8 °F 29.92 in Calm     83 % 0.00 in
01:50 40.6 °F 35.8 °F 29.92 in Calm     83 % 0.00 in
01:55 40.5 °F 35.7 °F 29.92 in Calm     83 % 0.00 in
02:00 40.5 °F 36.0 °F 29.92 in Calm     84 % 0.00 in
02:05 40.5 °F 36.0 °F 29.92 in Calm     84 % 0.00 in
02:10 40.5 °F 36.3 °F 29.92 in Calm     85 % 0.00 in
02:15 40.4 °F 36.2 °F 29.91 in Calm     85 % 0.00 in
02:20 40.4 °F 36.2 °F 29.91 in Calm     85 % 0.00 in
02:25 40.3 °F 36.1 °F 29.91 in Calm     85 % 0.00 in
02:30 40.3 °F 36.4 °F 29.91 in Calm     86 % 0.00 in
02:35 40.3 °F 36.4 °F 29.91 in SW 0.1 mph 1.2 mph 86 % 0.00 in
02:40 40.3 °F 36.7 °F 29.91 in Calm     87 % 0.00 in
02:45 40.3 °F 37.0 °F 29.92 in Calm     88 % 0.00 in
02:50 40.3 °F 37.3 °F 29.91 in Calm     89 % 0.00 in
02:55 40.2 °F 37.2 °F 29.91 in Calm     89 % 0.00 in
03:00 40.2 °F 37.2 °F 29.91 in Calm     89 % 0.00 in
03:05 40.1 °F 37.1 °F 29.91 in Calm   1.2 mph 89 % 0.00 in
03:11 39.9 °F 36.6 °F 29.91 in Calm     88 % 0.00 in
03:21 39.6 °F 36.3 °F 29.90 in Calm     88 % 0.00 in
03:26 39.5 °F 36.2 °F 29.91 in Calm   1.2 mph 88 % 0.00 in
03:31 39.4 °F 36.1 °F 29.91 in SW 0.1 mph 1.2 mph 88 % 0.00 in
03:36 39.3 °F 36.0 °F 29.91 in Calm   1.2 mph 88 % 0.00 in
03:41 39.2 °F 36.2 °F 29.91 in Calm     89 % 0.00 in
03:46 39.1 °F 36.1 °F 29.91 in North 2.9 mph 3.5 mph 89 % 0.00 in
03:51 39.0 °F 36.0 °F 29.90 in Calm   1.2 mph 89 % 0.00 in
03:56 38.9 °F 36.2 °F 29.91 in North 0.3 mph 1.2 mph 90 % 0.00 in
04:01 38.7 °F 35.7 °F 29.90 in Calm   2.3 mph 89 % 0.00 in
04:11 38.4 °F 35.7 °F 29.90 in Calm     90 % 0.00 in
04:16 38.3 °F 35.6 °F 29.90 in Calm     90 % 0.00 in
04:22 38.2 °F 35.5 °F 29.90 in Calm     90 % 0.00 in
04:27 38.1 °F 35.4 °F 29.90 in Calm     90 % 0.00 in
04:37 38.0 °F 35.3 °F 29.90 in Calm     90 % 0.00 in
04:42 37.9 °F 35.2 °F 29.90 in Calm     90 % 0.00 in
04:47 37.9 °F 35.5 °F 29.90 in Calm     91 % 0.00 in
04:52 37.9 °F 35.5 °F 29.90 in Calm     91 % 0.00 in
04:57 37.8 °F 35.4 °F 29.90 in Calm     91 % 0.00 in
05:02 37.7 °F 35.3 °F 29.90 in Calm     91 % 0.00 in
05:07 37.7 °F 35.3 °F 29.91 in Calm     91 % 0.00 in
05:12 37.6 °F 35.2 °F 29.91 in Calm     91 % 0.00 in
05:17 37.6 °F 35.2 °F 29.91 in North 0.5 mph 2.0 mph 91 % 0.00 in
05:22 37.5 °F 35.1 °F 29.90 in Calm   1.2 mph 91 % 0.00 in
05:27 37.5 °F 35.1 °F 29.90 in North 0.2 mph 2.3 mph 91 % 0.00 in
05:32 37.5 °F 35.1 °F 29.90 in North 0.1 mph 2.3 mph 91 % 0.00 in
05:37 37.5 °F 35.1 °F 29.90 in Calm   1.2 mph 91 % 0.00 in
05:42 37.4 °F 35.3 °F 29.90 in North 0.4 mph 1.2 mph 92 % 0.00 in
05:52 37.3 °F 35.2 °F 29.91 in Calm     92 % 0.00 in
05:57 37.3 °F 35.2 °F 29.91 in Calm     92 % 0.00 in
06:07 37.3 °F 35.2 °F 29.91 in Calm     92 % 0.00 in
06:12 37.3 °F 35.2 °F 29.90 in North 0.4 mph 2.0 mph 92 % 0.00 in
06:18 37.2 °F 35.1 °F 29.90 in Calm     92 % 0.00 in
06:23 37.1 °F 35.0 °F 29.91 in Calm     92 % 0.00 in
06:28 37.1 °F 35.0 °F 29.91 in Calm     92 % 0.00 in
06:33 37.1 °F 35.0 °F 29.92 in Calm     92 % 0.00 in
06:38 37.1 °F 35.0 °F 29.92 in Calm     92 % 0.00 in
06:43 37.0 °F 34.9 °F 29.92 in Calm     92 % 0.00 in
06:48 37.0 °F 34.9 °F 29.92 in North 0.1 mph 1.0 mph 92 % 0.00 in
06:58 37.0 °F 34.9 °F 29.92 in Calm     92 % 0.00 in
07:03 37.0 °F 34.9 °F 29.92 in Calm     92 % 0.00 in
07:08 37.0 °F 34.9 °F 29.92 in Calm     92 % 0.00 in
07:13 36.9 °F 34.8 °F 29.92 in Calm     92 % 0.00 in
07:18 36.9 °F 34.8 °F 29.93 in Calm     92 % 0.00 in
07:23 36.9 °F 34.8 °F 29.93 in Calm     92 % 0.00 in
07:28 36.9 °F 34.8 °F 29.93 in Calm     92 % 0.00 in
07:33 36.9 °F 34.8 °F 29.93 in Calm     92 % 0.00 in
07:38 36.8 °F 34.7 °F 29.93 in Calm     92 % 0.00 in
07:43 36.9 °F 34.8 °F 29.94 in Calm     92 % 0.00 in
07:48 36.9 °F 35.1 °F 29.94 in North 0.4 mph 1.0 mph 93 % 0.00 in
07:53 36.9 °F 35.1 °F 29.94 in Calm     93 % 0.00 in
07:58 36.9 °F 35.1 °F 29.94 in North 0.4 mph 2.3 mph 93 % 0.00 in
08:03 37.0 °F 35.2 °F 29.94 in Calm     93 % 0.00 in
08:08 37.0 °F 35.2 °F 29.95 in Calm     93 % 0.00 in
08:13 37.1 °F 35.3 °F 29.95 in Calm     93 % 0.00 in
08:19 37.1 °F 35.3 °F 29.95 in North 0.5 mph 1.0 mph 93 % 0.00 in
08:24 37.2 °F 35.4 °F 29.95 in North 0.1 mph 2.3 mph 93 % 0.00 in
08:29 37.2 °F 35.4 °F 29.95 in Calm   3.5 mph 93 % 0.00 in
08:34 37.2 °F 35.4 °F 29.96 in North 0.6 mph 2.3 mph 93 % 0.00 in
08:39 37.3 °F 35.7 °F 29.96 in North 0.5 mph 3.5 mph 94 % 0.00 in
08:44 37.3 °F 35.7 °F 29.97 in Calm     94 % 0.00 in
08:49 37.3 °F 35.7 °F 29.96 in Calm     94 % 0.00 in
08:54 37.4 °F 35.8 °F 29.96 in NE 0.7 mph 3.0 mph 94 % 0.00 in
08:59 37.3 °F 35.7 °F 29.97 in Calm     94 % 0.00 in
09:14 37.3 °F 35.7 °F 29.97 in ENE 1.0 mph 3.5 mph 94 % 0.00 in
09:19 37.3 °F 35.7 °F 29.97 in ENE 1.8 mph 3.5 mph 94 % 0.00 in
09:24 37.4 °F 35.8 °F 29.97 in ENE 1.3 mph 3.0 mph 94 % 0.00 in
09:29 37.4 °F 35.8 °F 29.97 in ENE 1.4 mph 2.3 mph 94 % 0.00 in
09:34 37.5 °F 35.9 °F 29.97 in ENE 0.7 mph 3.5 mph 94 % 0.00 in
09:39 37.6 °F 36.0 °F 29.97 in ENE 0.7 mph 2.3 mph 94 % 0.00 in
09:44 37.7 °F 36.1 °F 29.98 in ENE 0.1 mph 3.5 mph 94 % 0.00 in
09:49 37.8 °F 36.2 °F 29.98 in ENE 0.8 mph 3.5 mph 94 % 0.00 in
09:54 37.8 °F 36.2 °F 29.97 in ENE 1.8 mph 3.5 mph 94 % 0.00 in
09:59 37.9 °F 36.3 °F 29.97 in ENE 1.8 mph 3.5 mph 94 % 0.00 in
10:04 38.0 °F 36.4 °F 29.97 in ENE 1.7 mph 3.5 mph 94 % 0.00 in
10:09 38.2 °F 36.6 °F 29.97 in ENE 2.3 mph 3.5 mph 94 % 0.00 in
10:14 38.4 °F 36.8 °F 29.97 in ENE 1.6 mph 3.5 mph 94 % 0.00 in
10:20 38.6 °F 37.0 °F 29.97 in ENE 2.4 mph 3.5 mph 94 % 0.00 in
10:25 38.7 °F 37.1 °F 29.96 in ENE 3.9 mph 5.8 mph 94 % 0.00 in
10:30 38.8 °F 37.2 °F 29.96 in East 2.0 mph 3.5 mph 94 % 0.00 in
10:35 38.9 °F 37.3 °F 29.97 in ENE 2.8 mph 4.6 mph 94 % 0.00 in
10:40 38.9 °F 37.3 °F 29.97 in ENE 2.1 mph 3.5 mph 94 % 0.00 in
10:45 39.0 °F 37.4 °F 29.97 in ENE 2.8 mph 3.5 mph 94 % 0.00 in
10:50 39.0 °F 37.1 °F 29.97 in ENE 1.6 mph 4.6 mph 93 % 0.00 in
10:55 39.0 °F 37.1 °F 29.97 in NE 1.6 mph 3.5 mph 93 % 0.00 in
11:00 39.2 °F 37.3 °F 29.97 in NE 0.7 mph 2.3 mph 93 % 0.00 in
11:05 39.3 °F 37.4 °F 29.97 in NE 1.8 mph 3.5 mph 93 % 0.00 in
11:10 39.3 °F 37.4 °F 29.97 in NE 1.3 mph 3.5 mph 93 % 0.00 in
11:15 39.3 °F 37.4 °F 29.97 in NNE 2.4 mph 5.0 mph 93 % 0.00 in
11:20 39.3 °F 37.4 °F 29.97 in NE 2.1 mph 3.5 mph 93 % 0.00 in
11:25 39.3 °F 37.4 °F 29.96 in NE 2.2 mph 3.5 mph 93 % 0.00 in
11:30 39.3 °F 37.2 °F 29.96 in ENE 1.7 mph 3.5 mph 92 % 0.00 in
11:35 39.4 °F 37.5 °F 29.95 in ENE 0.6 mph 2.0 mph 93 % 0.00 in
11:40 39.6 °F 37.7 °F 29.95 in ENE 2.5 mph 3.5 mph 93 % 0.00 in
11:41 39.6 °F 37.7 °F 29.95 in ENE 2.2 mph 3.5 mph 93 % 0.00 in
11:46 39.7 °F 37.8 °F 29.94 in East 2.5 mph 4.6 mph 93 % 0.00 in
11:51 39.9 °F 38.0 °F 29.94 in ENE 2.9 mph 4.6 mph 93 % 0.00 in
11:57 39.9 °F 38.0 °F 29.94 in ENE 3.0 mph 6.9 mph 93 % 0.00 in
12:02 39.9 °F 38.0 °F 29.94 in NE 3.3 mph 5.0 mph 93 % 0.00 in
12:07 39.9 °F 37.8 °F 29.94 in NE 2.2 mph 4.6 mph 92 % 0.00 in
12:12 39.9 °F 37.8 °F 29.94 in NE 1.0 mph 4.6 mph 92 % 0.00 in
12:17 40.0 °F 37.9 °F 29.94 in NE 3.4 mph 4.6 mph 92 % 0.00 in
12:22 40.1 °F 38.0 °F 29.93 in ENE 2.5 mph 4.6 mph 92 % 0.00 in
12:27 40.0 °F 37.9 °F 29.93 in ENE 3.6 mph 7.0 mph 92 % 0.00 in
12:32 40.0 °F 37.9 °F 29.93 in NE 4.2 mph 6.9 mph 92 % 0.00 in
12:37 40.0 °F 37.9 °F 29.93 in ENE 3.9 mph 6.9 mph 92 % 0.00 in
12:42 39.9 °F 37.8 °F 29.92 in ENE 3.6 mph 4.6 mph 92 % 0.00 in
12:47 39.8 °F 37.7 °F 29.92 in ENE 4.0 mph 5.8 mph 92 % 0.00 in
12:52 39.8 °F 37.7 °F 29.92 in ENE 2.8 mph 4.6 mph 92 % 0.00 in
12:57 39.8 °F 37.7 °F 29.93 in East 6.3 mph 8.1 mph 92 % 0.00 in
13:02 39.7 °F 37.6 °F 29.93 in ENE 3.4 mph 5.8 mph 92 % 0.00 in
13:07 39.7 °F 37.6 °F 29.92 in ENE 2.5 mph 4.6 mph 92 % 0.00 in
13:12 39.7 °F 37.6 °F 29.93 in East 3.6 mph 5.8 mph 92 % 0.00 in
13:17 39.8 °F 37.7 °F 29.93 in East 2.0 mph 3.5 mph 92 % 0.00 in
13:22 39.9 °F 37.8 °F 29.93 in ENE 2.4 mph 8.1 mph 92 % 0.00 in
13:27 39.9 °F 37.8 °F 29.92 in ENE 3.0 mph 3.5 mph 92 % 0.00 in
13:32 40.0 °F 37.9 °F 29.92 in ENE 2.8 mph 4.6 mph 92 % 0.00 in
13:37 40.0 °F 37.9 °F 29.92 in East 3.5 mph 6.0 mph 92 % 0.00 in
13:42 39.9 °F 37.8 °F 29.92 in ENE 3.3 mph 4.6 mph 92 % 0.00 in
13:47 39.8 °F 37.7 °F 29.92 in ENE 3.7 mph 8.1 mph 92 % 0.00 in
13:52 39.7 °F 37.6 °F 29.92 in ENE 3.0 mph 5.8 mph 92 % 0.00 in
13:58 39.6 °F 37.5 °F 29.92 in ENE 3.5 mph 4.6 mph 92 % 0.00 in
14:03 39.5 °F 37.4 °F 29.92 in ENE 3.7 mph 7.0 mph 92 % 0.00 in
14:08 39.4 °F 37.3 °F 29.92 in ENE 3.4 mph 5.8 mph 92 % 0.00 in
14:13 39.5 °F 37.4 °F 29.92 in ENE 3.2 mph 4.6 mph 92 % 0.00 in
14:18 39.5 °F 37.4 °F 29.92 in ENE 3.7 mph 5.8 mph 92 % 0.00 in
14:23 39.4 °F 37.3 °F 29.92 in ENE 4.5 mph 6.9 mph 92 % 0.00 in
14:28 39.3 °F 37.2 °F 29.92 in ENE 5.6 mph 8.1 mph 92 % 0.00 in
14:33 39.3 °F 37.2 °F 29.91 in ENE 5.3 mph 9.2 mph 92 % 0.00 in
14:38 39.3 °F 37.4 °F 29.91 in East 3.6 mph 6.0 mph 93 % 0.00 in
14:43 39.4 °F 37.5 °F 29.91 in ENE 5.4 mph 8.1 mph 93 % 0.00 in
14:48 39.4 °F 37.5 °F 29.91 in East 6.7 mph 8.1 mph 93 % 0.00 in
14:53 39.5 °F 37.6 °F 29.91 in East 5.9 mph 10.4 mph 93 % 0.00 in
14:58 39.4 °F 37.5 °F 29.91 in East 6.3 mph 10.4 mph 93 % 0.00 in
15:03 39.4 °F 37.5 °F 29.91 in East 4.6 mph 8.1 mph 93 % 0.00 in
15:08 39.4 °F 37.5 °F 29.91 in ENE 4.6 mph 6.9 mph 93 % 0.00 in
15:13 39.3 °F 37.4 °F 29.91 in ENE 4.5 mph 6.9 mph 93 % 0.00 in
15:18 39.3 °F 37.4 °F 29.91 in East 4.9 mph 7.0 mph 93 % 0.00 in
15:23 39.3 °F 37.4 °F 29.91 in ENE 4.8 mph 8.1 mph 93 % 0.00 in
15:28 39.2 °F 37.3 °F 29.91 in ENE 3.9 mph 5.8 mph 93 % 0.00 in
15:33 39.2 °F 37.3 °F 29.91 in ENE 3.9 mph 6.9 mph 93 % 0.00 in
15:38 39.1 °F 37.2 °F 29.91 in ENE 3.9 mph 6.9 mph 93 % 0.00 in
15:43 39.1 °F 37.2 °F 29.91 in ENE 4.5 mph 5.8 mph 93 % 0.00 in
15:48 39.0 °F 37.1 °F 29.91 in East 7.3 mph 9.2 mph 93 % 0.00 in
15:53 38.9 °F 37.0 °F 29.91 in ENE 5.3 mph 6.9 mph 93 % 0.00 in
15:59 38.8 °F 36.9 °F 29.91 in ENE 4.8 mph 7.0 mph 93 % 0.00 in
16:04 38.7 °F 36.9 °F 29.91 in ENE 5.0 mph 6.9 mph 93 % 0.00 in
16:09 38.7 °F 36.9 °F 29.91 in ENE 3.6 mph 8.1 mph 93 % 0.00 in
16:14 38.5 °F 36.7 °F 29.91 in ENE 5.7 mph 9.2 mph 93 % 0.00 in
16:19 38.4 °F 36.6 °F 29.91 in East 4.8 mph 8.1 mph 93 % 0.00 in
16:24 38.3 °F 36.5 °F 29.91 in ENE 6.6 mph 9.2 mph 93 % 0.00 in
16:29 38.2 °F 36.4 °F 29.91 in ENE 5.1 mph 8.1 mph 93 % 0.00 in
16:34 38.2 °F 36.6 °F 29.91 in ENE 6.8 mph 9.2 mph 94 % 0.00 in
16:39 38.2 °F 36.6 °F 29.92 in ENE 4.5 mph 8.0 mph 94 % 0.00 in
16:44 38.2 °F 36.6 °F 29.92 in ENE 5.8 mph 8.1 mph 94 % 0.00 in
16:49 38.1 °F 36.5 °F 29.91 in ENE 6.8 mph 10.4 mph 94 % 0.00 in
16:54 38.1 °F 36.5 °F 29.92 in East 5.1 mph 8.1 mph 94 % 0.00 in
16:59 38.0 °F 36.4 °F 29.92 in ENE 5.3 mph 9.2 mph 94 % 0.00 in
17:04 38.0 °F 36.4 °F 29.92 in East 7.2 mph 8.1 mph 94 % 0.00 in
17:09 38.0 °F 36.4 °F 29.92 in East 5.4 mph 10.4 mph 94 % 0.00 in
17:10 38.0 °F 36.4 °F 29.92 in East 6.2 mph 10.4 mph 94 % 0.00 in
17:15 37.9 °F 36.3 °F 29.92 in East 7.2 mph 10.0 mph 94 % 0.00 in
17:20 37.9 °F 36.3 °F 29.92 in East 5.8 mph 8.1 mph 94 % 0.00 in
17:25 37.8 °F 36.2 °F 29.92 in ENE 6.2 mph 8.1 mph 94 % 0.00 in
17:30 37.8 °F 36.2 °F 29.92 in East 5.5 mph 8.1 mph 94 % 0.00 in
17:35 37.7 °F 36.1 °F 29.92 in East 5.1 mph 8.1 mph 94 % 0.00 in
17:40 37.7 °F 36.1 °F 29.92 in East 5.2 mph 8.1 mph 94 % 0.00 in
17:45 37.6 °F 36.0 °F 29.92 in East 6.0 mph 8.1 mph 94 % 0.00 in
17:50 37.6 °F 36.0 °F 29.92 in East 6.2 mph 8.1 mph 94 % 0.00 in
17:55 37.6 °F 36.0 °F 29.92 in East 5.2 mph 8.1 mph 94 % 0.00 in
18:00 37.5 °F 35.9 °F 29.92 in East 5.4 mph 8.1 mph 94 % 0.00 in
18:05 37.5 °F 35.9 °F 29.92 in East 6.2 mph 7.0 mph 94 % 0.00 in
18:10 37.5 °F 35.9 °F 29.92 in ENE 4.7 mph 6.9 mph 94 % 0.00 in
18:15 37.5 °F 35.9 °F 29.92 in ENE 5.4 mph 8.1 mph 94 % 0.00 in
18:20 37.5 °F 35.9 °F 29.92 in East 6.0 mph 8.1 mph 94 % 0.00 in
18:25 37.4 °F 35.8 °F 29.92 in East 5.2 mph 9.2 mph 94 % 0.00 in
18:30 37.4 °F 35.8 °F 29.93 in East 5.5 mph 8.1 mph 94 % 0.00 in
18:35 37.4 °F 35.8 °F 29.93 in East 4.8 mph 6.9 mph 94 % 0.00 in
18:40 37.4 °F 35.8 °F 29.93 in ENE 3.7 mph 6.9 mph 94 % 0.00 in
18:45 37.4 °F 35.8 °F 29.92 in East 5.2 mph 7.0 mph 94 % 0.00 in
18:50 37.4 °F 35.8 °F 29.92 in ENE 4.8 mph 6.9 mph 94 % 0.00 in
18:55 37.4 °F 35.8 °F 29.92 in ENE 5.2 mph 9.2 mph 94 % 0.00 in
19:00 37.3 °F 36.0 °F 29.92 in ENE 6.0 mph 8.0 mph 95 % 0.00 in
19:05 37.3 °F 36.0 °F 29.92 in ENE 4.9 mph 8.1 mph 95 % 0.00 in
19:11 37.3 °F 36.0 °F 29.92 in ENE 5.0 mph 8.0 mph 95 % 0.00 in
19:16 37.2 °F 36.0 °F 29.92 in ENE 8.0 mph 10.0 mph 95 % 0.00 in
19:21 37.2 °F 35.9 °F 29.91 in ENE 6.0 mph 10.0 mph 95 % 0.00 in
19:25 37.2 °F 35.9 °F 29.91 in ENE 6.6 mph 9.0 mph 95 % 0.00 in
19:31 37.2 °F 35.9 °F 29.91 in ENE 6.0 mph 9.0 mph 95 % 0.00 in
19:36 37.1 °F 35.8 °F 29.91 in ENE 7.0 mph 10.0 mph 95 % 0.00 in
19:41 37.1 °F 35.8 °F 29.91 in ENE 6.0 mph 9.0 mph 95 % 0.00 in
19:46 37.1 °F 35.8 °F 29.92 in ENE 4.8 mph 8.1 mph 95 % 0.00 in
19:51 37.1 °F 35.8 °F 29.92 in ENE 7.0 mph 9.0 mph 95 % 0.00 in
19:56 37.0 °F 35.7 °F 29.91 in ENE 6.0 mph 10.0 mph 95 % 0.00 in
20:06 37.0 °F 35.7 °F 29.91 in ENE 5.8 mph 9.2 mph 95 % 0.00 in
20:11 37.0 °F 36.0 °F 29.91 in ENE 5.4 mph 10.4 mph 96 % 0.00 in
20:16 37.0 °F 36.0 °F 29.91 in ENE 7.7 mph 11.5 mph 96 % 0.00 in
20:21 37.0 °F 36.0 °F 29.91 in East 6.0 mph 10.4 mph 96 % 0.00 in
20:26 36.9 °F 35.9 °F 29.91 in ENE 6.6 mph 9.2 mph 96 % 0.00 in
20:36 36.9 °F 35.9 °F 29.90 in NE 7.6 mph 10.4 mph 96 % 0.00 in
20:41 36.9 °F 35.9 °F 29.90 in ENE 6.3 mph 10.4 mph 96 % 0.00 in
20:46 36.9 °F 35.9 °F 29.90 in ENE 5.6 mph 8.0 mph 96 % 0.00 in
20:51 36.8 °F 35.8 °F 29.90 in ENE 7.3 mph 11.5 mph 96 % 0.00 in
20:56 36.8 °F 35.8 °F 29.90 in ENE 4.1 mph 5.8 mph 96 % 0.00 in
21:06 36.8 °F 35.8 °F 29.89 in ENE 5.3 mph 9.2 mph 96 % 0.00 in
21:11 36.8 °F 35.8 °F 29.89 in ENE 5.9 mph 8.1 mph 96 % 0.00 in
21:16 36.8 °F 35.8 °F 29.88 in ENE 6.1 mph 10.4 mph 96 % 0.00 in
21:21 36.7 °F 35.7 °F 29.88 in East 4.7 mph 6.0 mph 96 % 0.00 in
21:26 36.7 °F 35.7 °F 29.88 in East 5.6 mph 8.1 mph 96 % 0.00 in
21:31 36.7 °F 35.9 °F 29.88 in East 3.9 mph 5.0 mph 97 % 0.00 in
21:36 36.7 °F 35.9 °F 29.88 in ENE 5.3 mph 6.9 mph 97 % 0.00 in
21:42 36.6 °F 35.8 °F 29.87 in ENE 5.7 mph 7.0 mph 97 % 0.00 in
21:47 36.6 °F 35.8 °F 29.87 in ENE 5.9 mph 10.4 mph 97 % 0.00 in
21:52 36.6 °F 35.8 °F 29.86 in ENE 7.2 mph 9.2 mph 97 % 0.00 in
22:02 36.6 °F 35.8 °F 29.87 in ENE 4.8 mph 7.0 mph 97 % 0.00 in
22:07 36.6 °F 35.8 °F 29.86 in East 6.2 mph 9.2 mph 97 % 0.00 in
22:12 36.6 °F 35.8 °F 29.86 in ENE 5.1 mph 8.0 mph 97 % 0.00 in
22:17 36.6 °F 35.8 °F 29.86 in ENE 5.2 mph 8.1 mph 97 % 0.00 in
22:27 36.6 °F 35.8 °F 29.86 in East 4.8 mph 6.9 mph 97 % 0.00 in
22:32 36.6 °F 35.8 °F 29.86 in ENE 3.6 mph 4.6 mph 97 % 0.00 in
22:42 36.5 °F 35.7 °F 29.85 in ENE 6.1 mph 8.1 mph 97 % 0.00 in
22:47 36.5 °F 35.7 °F 29.85 in ENE 3.9 mph 5.8 mph 97 % 0.00 in
22:52 36.5 °F 35.7 °F 29.84 in ENE 5.1 mph 8.1 mph 97 % 0.00 in
22:57 36.4 °F 35.6 °F 29.84 in East 4.8 mph 5.8 mph 97 % 0.00 in
23:02 36.4 °F 35.6 °F 29.84 in ENE 3.5 mph 6.9 mph 97 % 0.00 in
23:07 36.4 °F 35.6 °F 29.84 in ENE 3.4 mph 6.0 mph 97 % 0.00 in
23:12 36.4 °F 35.6 °F 29.84 in ENE 2.8 mph 8.1 mph 97 % 0.00 in
23:17 36.4 °F 35.6 °F 29.84 in East 2.9 mph 5.8 mph 97 % 0.00 in
23:22 36.4 °F 35.6 °F 29.84 in ENE 3.6 mph 4.6 mph 97 % 0.00 in
23:27 36.4 °F 35.6 °F 29.84 in East 3.0 mph 4.6 mph 97 % 0.00 in
23:37 36.4 °F 35.6 °F 29.84 in ENE 3.0 mph 4.0 mph 97 % 0.00 in
23:48 36.4 °F 35.6 °F 29.84 in East 4.0 mph 6.9 mph 97 % 0.00 in
23:53 36.4 °F 35.6 °F 29.84 in East 4.0 mph 5.8 mph 97 % 0.00 in
23:58 36.4 °F 35.6 °F 29.84 in East 4.8 mph 6.0 mph 97 % 0.00 in
Crab Meadow Weather
Compliments of Weather Underground - 2.75 mb

Script developed by  Jim McMurry - jmcmurry@mwt.net Adapted for the template by  Wim van der Kuil - Leuven-Template.eu

Hurricanes: Hurricanes are classified into five categories, based on their wind speeds and potential to cause damage. * Category One -- Winds 74-95 miles per hour * Category Two -- Winds 96-110 miles per hour * Category Three -- Winds 111-130 miles per hour * Category Four -- Winds 131-155 miles per hour * Category Five -- Winds greater than 155 miles per hour.